QPF
0.01 0.01 0.01 0.03 0.05 0.06 0.06 0.06 0.04 0.03 0.03 0.04 0.03 0.02 0.03 0.03 0.02 0.02 0.02 0.02 0.02 0.04 0.10 0.15 0.13 0.11 0.09 0.07 0.04 0.06 0.06 0.05 0.04 0.04 0.06 0.10 0.10 0.07 0.05 0.05 0.04 0.04 0.06
0.00 0.00 0.02 0.04 0.04 0.06 0.07 0.06 0.04 0.03 0.03 0.02 0.02 0.03 0.03 0.03 0.02 0.02 0.02 0.02 0.02 0.04 0.07 0.12 0.11 0.10 0.07 0.06 0.06 0.07 0.05 0.04 0.02 0.03 0.04 0.06 0.07 0.06 0.04 0.03 0.03 0.05 0.06
0.00 0.01 0.02 0.04 0.07 0.11 0.08 0.05 0.05 0.04 0.03 0.02 0.02 0.03 0.03 0.03 0.03 0.02 0.02 0.02 0.02 0.03 0.06 0.11 0.11 0.10 0.08 0.08 0.08 0.07 0.06 0.05 0.04 0.04 0.04 0.03 0.04 0.04 0.04 0.03 0.04 0.05 0.06
0.01 0.01 0.02 0.03 0.07 0.12 0.11 0.07 0.06 0.05 0.04 0.03 0.02 0.03 0.03 0.03 0.03 0.02 0.02 0.02 0.02 0.04 0.05 0.08 0.11 0.10 0.10 0.09 0.10 0.09 0.09 0.07 0.06 0.05 0.04 0.04 0.04 0.04 0.04 0.03 0.04 0.04 0.05
0.01 0.01 0.01 0.02 0.04 0.06 0.08 0.07 0.06 0.05 0.04 0.03 0.03 0.03 0.03 0.03 0.04 0.03 0.02 0.03 0.03 0.04 0.04 0.05 0.07 0.09 0.10 0.11 0.12 0.12 0.11 0.09 0.06 0.05 0.06 0.06 0.04 0.05 0.04 0.03 0.03 0.04 0.05
0.01 0.01 0.01 0.02 0.03 0.04 0.05 0.04 0.04 0.04 0.05 0.04 0.03 0.03 0.04 0.04 0.04 0.04 0.04 0.05 0.05 0.06 0.05 0.05 0.05 0.06 0.07 0.09 0.11 0.11 0.11 0.08 0.06 0.06 0.06 0.06 0.05 0.06 0.06 0.04 0.03 0.04 0.05
0.00 0.00 0.01 0.01 0.02 0.03 0.05 0.05 0.05 0.05 0.07 0.07 0.04 0.03 0.04 0.05 0.04 0.04 0.05 0.06 0.06 0.07 0.06 0.05 0.05 0.05 0.04 0.06 0.06 0.07 0.09 0.09 0.06 0.06 0.08 0.07 0.06 0.07 0.07 0.06 0.05 0.05 0.06
0.00 0.00 0.01 0.01 0.01 0.02 0.04 0.05 0.06 0.06 0.07 0.08 0.08 0.06 0.06 0.06 0.06 0.05 0.05 0.06 0.07 0.07 0.07 0.06 0.05 0.04 0.04 0.02 0.03 0.03 0.04 0.06 0.08 0.10 0.12 0.09 0.08 0.08 0.08 0.07 0.07 0.07 0.05
0.00 0.00 0.01 0.01 0.02 0.02 0.04 0.05 0.06 0.07 0.07 0.07 0.08 0.07 0.07 0.06 0.05 0.03 0.05 0.06 0.06 0.06 0.05 0.04 0.03 0.02 0.02 0.02 0.01 0.02 0.03 0.06 0.11 0.14 0.15 0.12 0.08 0.10 0.09 0.08 0.07 0.07 0.06
0.00 0.00 0.01 0.01 0.02 0.03 0.03 0.04 0.06 0.06 0.07 0.08 0.08 0.08 0.08 0.07 0.06 0.04 0.04 0.05 0.04 0.04 0.04 0.04 0.03 0.02 0.02 0.02 0.01 0.02 0.04 0.05 0.11 0.14 0.14 0.13 0.10 0.11 0.10 0.08 0.07 0.08 0.07
0.00 0.00 0.00 0.01 0.01 0.02 0.03 0.04 0.04 0.06 0.07 0.08 0.10 0.09 0.09 0.10 0.09 0.08 0.05 0.04 0.04 0.04 0.04 0.05 0.04 0.03 0.02 0.02 0.02 0.02 0.05 0.05 0.08 0.10 0.13 0.15 0.16 0.13 0.11 0.09 0.08 0.08 0.09
0.01 0.01 0.01 0.01 0.01 0.01 0.02 0.03 0.05 0.06 0.07 0.08 0.12 0.13 0.12 0.11 0.10 0.08 0.08 0.06 0.06 0.05 0.04 0.05 0.04 0.03 0.02 0.02 0.02 0.02 0.03 0.06 0.07 0.10 0.13 0.17 0.25 0.18 0.13 0.12 0.11 0.11 0.12
0.01 0.01 0.01 0.01 0.01 0.01 0.02 0.03 0.04 0.06 0.09 0.10 0.12 0.13 0.14 0.15 0.14 0.10 0.10 0.10 0.07 0.05 0.04 0.02 0.02 0.02 0.01 0.01 0.02 0.02 0.02 0.04 0.05 0.08 0.09 0.10 0.13 0.14 0.14 0.14 0.14 0.14 0.12
0.01 0.01 0.01 0.02 0.02 0.01 0.01 0.02 0.03 0.05 0.07 0.09 0.10 0.11 0.14 0.17 0.16 0.12 0.10 0.08 0.05 0.03 0.02 0.01 0.01 0.01 0.02 0.02 0.02 0.02 0.03 0.03 0.03 0.04 0.06 0.07 0.08 0.09 0.12 0.14 0.14 0.12 0.09
0.01 0.01 0.01 0.02 0.03 0.03 0.02 0.01 0.02 0.04 0.07 0.08 0.10 0.11 0.13 0.15 0.17 0.13 0.10 0.07 0.05 0.03 0.01 0.01 0.01 0.01 0.02 0.02 0.03 0.03 0.04 0.04 0.03 0.03 0.04 0.05 0.06 0.08 0.08 0.08 0.07 0.06 0.06
0.01 0.01 0.01 0.02 0.03 0.03 0.02 0.02 0.01 0.02 0.05 0.09 0.11 0.11 0.12 0.13 0.15 0.14 0.10 0.07 0.05 0.03 0.02 0.01 0.01 0.01 0.02 0.02 0.02 0.03 0.04 0.04 0.04 0.03 0.03 0.03 0.03 0.03 0.03 0.04 0.05 0.05 0.06
0.01 0.01 0.01 0.02 0.03 0.04 0.03 0.02 0.01 0.01 0.03 0.07 0.11 0.13 0.12 0.12 0.13 0.13 0.11 0.07 0.05 0.04 0.03 0.02 0.01 0.01 0.01 0.02 0.02 0.03 0.03 0.04 0.04 0.03 0.03 0.03 0.02 0.02 0.02 0.03 0.03 0.04 0.05
0.01 0.01 0.01 0.01 0.02 0.03 0.04 0.03 0.02 0.01 0.02 0.04 0.08 0.12 0.14 0.13 0.12 0.12 0.11 0.08 0.05 0.04 0.03 0.02 0.01 0.01 0.01 0.01 0.01 0.02 0.03 0.03 0.03 0.03 0.03 0.04 0.03 0.01 0.02 0.02 0.02 0.02 0.03
0.02 0.02 0.02 0.02 0.02 0.02 0.02 0.03 0.02 0.02 0.02 0.03 0.06 0.09 0.12 0.13 0.13 0.12 0.12 0.10 0.07 0.05 0.04 0.03 0.02 0.02 0.02 0.02 0.01 0.02 0.03 0.03 0.03 0.03 0.02 0.02 0.03 0.02 0.01 0.02 0.02 0.02 0.03
0.02 0.03 0.02 0.02 0.02 0.02 0.02 0.02 0.02 0.02 0.03 0.03 0.05 0.07 0.09 0.11 0.12 0.12 0.11 0.09 0.07 0.06 0.06 0.06 0.05 0.04 0.04 0.02 0.02 0.02 0.02 0.03 0.03 0.03 0.02 0.02 0.02 0.03 0.02 0.02 0.03 0.03 0.03
0.01 0.02 0.03 0.02 0.03 0.03 0.02 0.02 0.01 0.02 0.02 0.03 0.04 0.05 0.06 0.09 0.10 0.10 0.10 0.09 0.07 0.07 0.06 0.07 0.07 0.06 0.05 0.03 0.03 0.03 0.03 0.04 0.03 0.03 0.03 0.03 0.03 0.03 0.03 0.04 0.04 0.04 0.03
0.01 0.02 0.02 0.03 0.03 0.03 0.02 0.01 0.02 0.02 0.02 0.03 0.03 0.04 0.05 0.07 0.09 0.10 0.08 0.07 0.06 0.06 0.07 0.07 0.08 0.07 0.06 0.05 0.04 0.04 0.04 0.04 0.03 0.03 0.02 0.02 0.03 0.03 0.03 0.04 0.04 0.04 0.04
0.01 0.02 0.02 0.02 0.03 0.04 0.03 0.02 0.03 0.02 0.02 0.02 0.02 0.03 0.04 0.05 0.06 0.08 0.10 0.07 0.06 0.05 0.05 0.06 0.06 0.07 0.07 0.06 0.05 0.06 0.05 0.04 0.03 0.02 0.02 0.01 0.01 0.02 0.03 0.04 0.04 0.04 0.04
0.02 0.02 0.02 0.03 0.03 0.04 0.05 0.04 0.04 0.04 0.02 0.01 0.01 0.02 0.03 0.03 0.04 0.04 0.07 0.10 0.09 0.06 0.05 0.05 0.05 0.06 0.06 0.06 0.06 0.04 0.03 0.02 0.02 0.02 0.02 0.01 0.02 0.02 0.02 0.03 0.03 0.04 0.03
0.01 0.03 0.03 0.04 0.04 0.05 0.06 0.06 0.06 0.05 0.04 0.02 0.02 0.01 0.02 0.02 0.03 0.03 0.03 0.05 0.09 0.10 0.07 0.05 0.04 0.05 0.05 0.05 0.05 0.04 0.03 0.02 0.02 0.01 0.01 0.01 0.02 0.02 0.01 0.02 0.03 0.04 0.04
0.01 0.02 0.04 0.05 0.05 0.04 0.05 0.06 0.07 0.07 0.06 0.04 0.03 0.02 0.02 0.02 0.02 0.02 0.02 0.02 0.04 0.06 0.08 0.06 0.04 0.04 0.05 0.04 0.04 0.04 0.03 0.03 0.02 0.01 0.01 0.01 0.01 0.01 0.01 0.01 0.02 0.03 0.04
MSLP
1023.10 1022.62 1021.83 1020.92 1020.05 1019.37 1018.93 1018.75 1018.77 1018.91 1019.10 1019.27 1019.37 1019.42 1019.42 1019.42 1019.43 1019.48 1019.55 1019.65 1019.73 1019.80 1019.83 1019.83 1019.80 1019.76 1019.71 1019.66 1019.60 1019.53 1019.43 1019.31 1019.17 1019.00 1018.82 1018.62 1018.42 1018.21 1017.99 1017.75 1017.50 1017.25 1017.02
1023.33 1022.84 1022.07 1021.19 1020.35 1019.69 1019.26 1019.06 1019.04 1019.15 1019.31 1019.46 1019.58 1019.67 1019.75 1019.83 1019.94 1020.07 1020.23 1020.38 1020.51 1020.59 1020.62 1020.61 1020.55 1020.46 1020.36 1020.24 1020.12 1019.98 1019.84 1019.68 1019.52 1019.36 1019.21 1019.05 1018.89 1018.72 1018.52 1018.28 1018.02 1017.74 1017.47
1023.75 1023.25 1022.49 1021.63 1020.82 1020.18 1019.74 1019.51 1019.46 1019.52 1019.64 1019.77 1019.90 1020.03 1020.16 1020.31 1020.49 1020.69 1020.89 1021.08 1021.22 1021.31 1021.33 1021.30 1021.21 1021.08 1020.93 1020.76 1020.57 1020.38 1020.19 1020.00 1019.83 1019.68 1019.56 1019.45 1019.34 1019.21 1019.04 1018.83 1018.57 1018.28 1017.98
1024.29 1023.78 1023.05 1022.23 1021.46 1020.84 1020.40 1020.15 1020.05 1020.06 1020.14 1020.24 1020.36 1020.50 1020.66 1020.84 1021.06 1021.28 1021.51 1021.70 1021.84 1021.91 1021.92 1021.86 1021.76 1021.60 1021.42 1021.21 1020.99 1020.76 1020.53 1020.33 1020.15 1020.01 1019.91 1019.83 1019.76 1019.68 1019.55 1019.37 1019.12 1018.84 1018.53
1024.87 1024.38 1023.70 1022.94 1022.24 1021.66 1021.24 1020.97 1020.84 1020.79 1020.82 1020.88 1020.97 1021.09 1021.25 1021.44 1021.65 1021.87 1022.07 1022.24 1022.35 1022.41 1022.40 1022.33 1022.21 1022.06 1021.87 1021.66 1021.42 1021.18 1020.94 1020.71 1020.53 1020.39 1020.29 1020.23 1020.19 1020.12 1020.02 1019.86 1019.64 1019.36 1019.06
1025.39 1024.95 1024.35 1023.70 1023.10 1022.59 1022.20 1021.94 1021.78 1021.70 1021.66 1021.67 1021.72 1021.81 1021.94 1022.10 1022.28 1022.46 1022.62 1022.75 1022.82 1022.84 1022.81 1022.74 1022.63 1022.49 1022.32 1022.13 1021.91 1021.67 1021.43 1021.20 1021.00 1020.85 1020.74 1020.67 1020.61 1020.54 1020.44 1020.29 1020.09 1019.83 1019.56
1025.78 1025.43 1024.96 1024.45 1023.97 1023.56 1023.24 1023.01 1022.84 1022.72 1022.64 1022.59 1022.59 1022.63 1022.71 1022.83 1022.96 1023.10 1023.21 1023.28 1023.31 1023.30 1023.25 1023.17 1023.07 1022.96 1022.82 1022.66 1022.47 1022.26 1022.03 1021.80 1021.59 1021.41 1021.27 1021.15 1021.05 1020.94 1020.81 1020.65 1020.45 1020.22 1019.98
1026.00 1025.77 1025.46 1025.12 1024.80 1024.52 1024.29 1024.09 1023.93 1023.79 1023.67 1023.58 1023.53 1023.53 1023.57 1023.64 1023.73 1023.82 1023.88 1023.90 1023.89 1023.84 1023.76 1023.68 1023.59 1023.49 1023.38 1023.25 1023.10 1022.92 1022.72 1022.50 1022.28 1022.06 1021.86 1021.68 1021.50 1021.32 1021.14 1020.94 1020.73 1020.52 1020.33
1026.05 1025.98 1025.84 1025.69 1025.54 1025.40 1025.26 1025.13 1024.99 1024.84 1024.70 1024.58 1024.50 1024.46 1024.47 1024.52 1024.58 1024.63 1024.65 1024.63 1024.58 1024.49 1024.39 1024.28 1024.18 1024.08 1023.99 1023.89 1023.77 1023.62 1023.45 1023.24 1023.01 1022.77 1022.51 1022.25 1021.99 1021.72 1021.46 1021.21 1020.97 1020.77 1020.61
1026.00 1026.09 1026.13 1026.16 1026.17 1026.16 1026.12 1026.05 1025.94 1025.80 1025.65 1025.52 1025.43 1025.38 1025.38 1025.42 1025.46 1025.50 1025.50 1025.45 1025.37 1025.24 1025.10 1024.96 1024.83 1024.71 1024.61 1024.52 1024.42 1024.31 1024.16 1023.98 1023.76 1023.50 1023.20 1022.87 1022.53 1022.17 1021.82 1021.50 1021.22 1021.00 1020.86
1025.92 1026.16 1026.36 1026.55 1026.69 1026.79 1026.83 1026.81 1026.73 1026.61 1026.48 1026.36 1026.27 1026.23 1026.24 1026.29 1026.34 1026.37 1026.37 1026.31 1026.19 1026.04 1025.85 1025.66 1025.48 1025.33 1025.20 1025.10 1025.01 1024.92 1024.81 1024.67 1024.47 1024.22 1023.91 1023.54 1023.13 1022.69 1022.26 1021.86 1021.52 1021.27 1021.12
1025.88 1026.24 1026.58 1026.87 1027.11 1027.29 1027.39 1027.41 1027.36 1027.27 1027.16 1027.06 1027.00 1026.98 1027.02 1027.07 1027.14 1027.19 1027.18 1027.11 1026.98 1026.79 1026.57 1026.32 1026.09 1025.88 1025.72 1025.59 1025.51 1025.44 1025.37 1025.28 1025.13 1024.92 1024.63 1024.25 1023.80 1023.32 1022.81 1022.34 1021.94 1021.63 1021.44
1025.92 1026.38 1026.80 1027.15 1027.44 1027.65 1027.78 1027.83 1027.82 1027.76 1027.69 1027.63 1027.60 1027.62 1027.67 1027.75 1027.83 1027.88 1027.88 1027.80 1027.66 1027.45 1027.19 1026.90 1026.62 1026.36 1026.16 1026.01 1025.92 1025.88 1025.85 1025.82 1025.74 1025.59 1025.35 1025.00 1024.56 1024.04 1023.50 1022.97 1022.50 1022.12 1021.86
1026.08 1026.59 1027.03 1027.40 1027.70 1027.91 1028.05 1028.12 1028.14 1028.13 1028.10 1028.09 1028.10 1028.15 1028.22 1028.31 1028.38 1028.43 1028.42 1028.34 1028.19 1027.97 1027.69 1027.38 1027.06 1026.77 1026.54 1026.37 1026.28 1026.26 1026.28 1026.31 1026.31 1026.23 1026.06 1025.77 1025.36 1024.86 1024.30 1023.73 1023.20 1022.76 1022.42
1026.33 1026.85 1027.28 1027.63 1027.89 1028.08 1028.22 1028.31 1028.37 1028.41 1028.45 1028.49 1028.54 1028.61 1028.69 1028.76 1028.82 1028.84 1028.82 1028.73 1028.58 1028.36 1028.08 1027.77 1027.45 1027.15 1026.90 1026.73 1026.64 1026.63 1026.68 1026.77 1026.83 1026.84 1026.75 1026.53 1026.18 1025.72 1025.18 1024.60 1024.04 1023.53 1023.11
1026.64 1027.15 1027.54 1027.82 1028.03 1028.19 1028.32 1028.44 1028.55 1028.65 1028.76 1028.87 1028.96 1029.04 1029.11 1029.15 1029.17 1029.16 1029.10 1029.00 1028.85 1028.65 1028.40 1028.11 1027.82 1027.53 1027.29 1027.12 1027.04 1027.04 1027.11 1027.22 1027.34 1027.41 1027.39 1027.24 1026.97 1026.57 1026.07 1025.51 1024.94 1024.40 1023.91
1026.99 1027.46 1027.78 1027.99 1028.14 1028.27 1028.39 1028.54 1028.71 1028.90 1029.09 1029.26 1029.40 1029.49 1029.53 1029.53 1029.50 1029.43 1029.33 1029.22 1029.07 1028.90 1028.70 1028.46 1028.21 1027.97 1027.75 1027.59 1027.51 1027.50 1027.57 1027.69 1027.83 1027.93 1027.96 1027.88 1027.67 1027.34 1026.91 1026.40 1025.85 1025.31 1024.79
1027.34 1027.75 1028.00 1028.15 1028.24 1028.33 1028.46 1028.65 1028.89 1029.17 1029.44 1029.68 1029.86 1029.96 1029.98 1029.93 1029.83 1029.70 1029.57 1029.43 1029.30 1029.16 1029.01 1028.85 1028.66 1028.47 1028.30 1028.15 1028.06 1028.04 1028.08 1028.18 1028.30 1028.41 1028.46 1028.42 1028.27 1028.01 1027.65 1027.21 1026.72 1026.21 1025.69
1027.67 1028.03 1028.22 1028.29 1028.33 1028.40 1028.55 1028.78 1029.09 1029.45 1029.81 1030.11 1030.32 1030.43 1030.43 1030.34 1030.18 1030.00 1029.83 1029.68 1029.56 1029.47 1029.38 1029.28 1029.17 1029.04 1028.91 1028.78 1028.68 1028.63 1028.64 1028.69 1028.77 1028.85 1028.89 1028.87 1028.77 1028.57 1028.29 1027.93 1027.51 1027.05 1026.58
1027.97 1028.29 1028.43 1028.45 1028.45 1028.51 1028.67 1028.94 1029.31 1029.73 1030.15 1030.51 1030.76 1030.88 1030.86 1030.74 1030.55 1030.33 1030.13 1029.97 1029.87 1029.81 1029.79 1029.76 1029.72 1029.65 1029.55 1029.44 1029.34 1029.26 1029.22 1029.22 1029.24 1029.28 1029.30 1029.28 1029.20 1029.05 1028.83 1028.55 1028.21 1027.83 1027.41
1028.25 1028.54 1028.64 1028.63 1028.61 1028.66 1028.82 1029.12 1029.52 1029.99 1030.45 1030.85 1031.12 1031.25 1031.23 1031.10 1030.89 1030.65 1030.44 1030.29 1030.21 1030.19 1030.21 1030.25 1030.27 1030.25 1030.19 1030.11 1030.00 1029.91 1029.83 1029.78 1029.75 1029.75 1029.74 1029.71 1029.64 1029.52 1029.34 1029.12 1028.85 1028.54 1028.18
1028.48 1028.76 1028.85 1028.84 1028.82 1028.86 1029.03 1029.32 1029.73 1030.21 1030.68 1031.09 1031.38 1031.52 1031.51 1031.38 1031.18 1030.95 1030.75 1030.61 1030.56 1030.57 1030.63 1030.71 1030.78 1030.81 1030.79 1030.73 1030.64 1030.54 1030.45 1030.37 1030.32 1030.28 1030.25 1030.20 1030.13 1030.03 1029.88 1029.69 1029.47 1029.20 1028.89
1028.65 1028.95 1029.06 1029.07 1029.07 1029.11 1029.27 1029.55 1029.94 1030.39 1030.84 1031.24 1031.52 1031.67 1031.68 1031.57 1031.39 1031.19 1031.02 1030.91 1030.88 1030.92 1031.01 1031.12 1031.22 1031.29 1031.31 1031.28 1031.22 1031.14 1031.07 1031.00 1030.94 1030.90 1030.86 1030.81 1030.73 1030.63 1030.48 1030.31 1030.09 1029.84 1029.55
1028.73 1029.07 1029.25 1029.31 1029.34 1029.41 1029.56 1029.81 1030.15 1030.55 1030.95 1031.31 1031.58 1031.72 1031.75 1031.67 1031.54 1031.38 1031.25 1031.17 1031.16 1031.22 1031.33 1031.46 1031.58 1031.67 1031.73 1031.74 1031.73 1031.70 1031.66 1031.63 1031.61 1031.59 1031.57 1031.52 1031.44 1031.33 1031.17 1030.98 1030.75 1030.48 1030.18
1028.70 1029.12 1029.39 1029.53 1029.63 1029.73 1029.88 1030.10 1030.38 1030.71 1031.05 1031.35 1031.58 1031.72 1031.76 1031.72 1031.63 1031.52 1031.44 1031.39 1031.41 1031.48 1031.59 1031.72 1031.85 1031.96 1032.04 1032.10 1032.14 1032.17 1032.20 1032.23 1032.27 1032.30 1032.31 1032.28 1032.21 1032.08 1031.91 1031.68 1031.41 1031.10 1030.76
1028.57 1029.08 1029.46 1029.71 1029.90 1030.05 1030.21 1030.41 1030.64 1030.90 1031.16 1031.40 1031.59 1031.71 1031.76 1031.75 1031.70 1031.64 1031.59 1031.58 1031.61 1031.68 1031.79 1031.91 1032.03 1032.15 1032.25 1032.35 1032.44 1032.53 1032.63 1032.74 1032.85 1032.94 1032.99 1033.00 1032.94 1032.81 1032.61 1032.35 1032.03 1031.67 1031.28
Thickness
5690 5692 5692 5694 5696 5697 5698 5699 5700 5699 5700 5700 5700 5700 5701 5702 5703 5704 5705 5706 5707 5708 5709 5710 5712 5712 5713 5714 5714 5714 5714 5715 5716 5716 5717 5718 5718 5719 5719 5719 5719 5719 5720
5688 5688 5689 5691 5692 5693 5694 5695 5696 5695 5695 5696 5696 5696 5697 5698 5698 5699 5700 5701 5703 5704 5704 5705 5706 5707 5708 5708 5709 5710 5710 5710 5711 5712 5713 5713 5714 5714 5715 5715 5715 5715 5716
5684 5684 5684 5686 5687 5688 5689 5690 5691 5691 5691 5691 5692 5692 5692 5693 5694 5695 5696 5697 5698 5699 5700 5700 5701 5702 5702 5703 5704 5705 5706 5706 5707 5708 5708 5709 5709 5710 5710 5710 5711 5711 5711
5680 5680 5680 5681 5682 5683 5684 5685 5686 5686 5686 5686 5687 5687 5688 5688 5689 5690 5691 5692 5693 5694 5695 5696 5696 5697 5697 5697 5698 5699 5701 5702 5702 5703 5704 5704 5704 5705 5706 5706 5706 5706 5706
5676 5675 5675 5676 5677 5678 5679 5680 5681 5681 5681 5681 5682 5682 5683 5683 5684 5684 5685 5686 5687 5689 5690 5691 5690 5691 5692 5692 5693 5694 5695 5696 5697 5698 5699 5699 5700 5700 5701 5701 5701 5701 5701
5670 5670 5670 5671 5671 5673 5673 5674 5675 5676 5676 5676 5676 5677 5677 5678 5679 5679 5679 5680 5681 5683 5684 5685 5685 5685 5686 5686 5687 5688 5690 5691 5692 5692 5693 5694 5694 5695 5695 5695 5696 5696 5696
5664 5664 5664 5665 5666 5667 5668 5668 5668 5670 5670 5670 5670 5671 5671 5672 5673 5673 5673 5674 5675 5676 5677 5678 5678 5679 5679 5680 5681 5682 5683 5685 5686 5687 5687 5688 5688 5689 5689 5689 5690 5690 5690
5657 5657 5658 5659 5660 5661 5662 5662 5662 5663 5664 5664 5664 5665 5665 5665 5666 5666 5666 5667 5669 5670 5670 5670 5671 5672 5673 5673 5674 5676 5677 5679 5680 5681 5681 5682 5682 5683 5683 5684 5684 5684 5685
5650 5650 5651 5651 5653 5654 5655 5655 5656 5657 5657 5657 5657 5658 5658 5659 5659 5660 5660 5660 5661 5662 5663 5664 5665 5665 5666 5667 5668 5669 5671 5673 5674 5674 5674 5675 5676 5677 5677 5677 5678 5678 5678
5642 5643 5644 5645 5645 5646 5647 5648 5649 5650 5650 5650 5650 5651 5651 5652 5652 5653 5653 5654 5654 5655 5656 5657 5658 5658 5659 5660 5661 5662 5664 5666 5667 5667 5668 5668 5669 5670 5670 5671 5671 5671 5672
5633 5634 5636 5637 5638 5639 5640 5641 5641 5642 5643 5643 5643 5644 5644 5644 5645 5646 5646 5647 5647 5647 5648 5649 5650 5651 5652 5653 5654 5655 5656 5657 5659 5660 5660 5661 5662 5663 5663 5664 5664 5664 5665
5624 5625 5627 5629 5630 5631 5633 5633 5634 5635 5635 5635 5636 5636 5636 5637 5638 5638 5639 5639 5639 5640 5640 5641 5642 5643 5644 5644 5646 5647 5648 5648 5650 5651 5652 5653 5654 5655 5656 5656 5656 5657 5657
5616 5616 5618 5619 5621 5623 5624 5625 5626 5627 5627 5628 5629 5629 5629 5629 5630 5631 5630 5631 5631 5632 5632 5633 5633 5634 5635 5636 5637 5638 5639 5640 5641 5642 5643 5644 5645 5646 5647 5648 5648 5649 5650
5607 5607 5608 5610 5612 5613 5615 5616 5617 5618 5619 5620 5621 5621 5621 5622 5623 5623 5623 5623 5623 5623 5624 5624 5625 5625 5626 5627 5628 5629 5630 5630 5631 5633 5633 5635 5636 5637 5638 5639 5640 5641 5642
5598 5597 5598 5600 5602 5604 5605 5607 5608 5609 5610 5611 5612 5613 5614 5614 5614 5615 5614 5614 5614 5614 5614 5615 5615 5616 5617 5618 5619 5619 5620 5621 5621 5623 5624 5625 5627 5628 5629 5631 5632 5633 5633
5588 5588 5589 5591 5592 5593 5595 5597 5598 5600 5601 5602 5602 5603 5604 5605 5605 5605 5605 5606 5605 5605 5605 5605 5605 5606 5607 5608 5609 5610 5610 5611 5612 5613 5614 5615 5617 5618 5620 5621 5623 5624 5625
5579 5579 5580 5581 5582 5584 5585 5586 5588 5589 5590 5592 5592 5593 5594 5595 5596 5596 5595 5596 5595 5595 5595 5595 5595 5596 5596 5597 5598 5599 5601 5602 5602 5603 5605 5606 5607 5608 5610 5611 5613 5614 5616
5570 5570 5570 5571 5572 5573 5575 5576 5577 5578 5579 5580 5581 5582 5584 5585 5585 5585 5584 5584 5585 5585 5586 5586 5585 5585 5585 5586 5587 5588 5590 5591 5592 5594 5595 5596 5597 5597 5598 5600 5602 5604 5606
5561 5560 5560 5561 5561 5562 5563 5564 5566 5567 5568 5569 5570 5571 5572 5573 5574 5574 5572 5572 5574 5575 5575 5575 5575 5575 5574 5574 5576 5577 5578 5580 5582 5584 5585 5586 5586 5587 5588 5589 5591 5593 5595
5550 5550 5550 5550 5550 5551 5551 5552 5553 5555 5555 5556 5557 5558 5559 5560 5561 5562 5561 5561 5563 5563 5563 5564 5564 5564 5563 5563 5565 5565 5567 5568 5571 5572 5574 5575 5576 5576 5577 5578 5579 5581 5583
5540 5540 5539 5539 5539 5539 5540 5540 5541 5542 5543 5544 5545 5545 5546 5548 5549 5550 5549 5549 5550 5551 5552 5552 5553 5552 5551 5552 5552 5552 5554 5557 5559 5561 5563 5564 5565 5565 5566 5566 5567 5569 5570
5529 5529 5529 5528 5528 5528 5528 5528 5529 5530 5531 5532 5532 5533 5534 5535 5536 5537 5537 5538 5538 5539 5539 5540 5540 5539 5539 5541 5541 5540 5540 5541 5545 5548 5550 5552 5553 5554 5555 5555 5555 5557 5558
5518 5518 5518 5517 5517 5517 5517 5516 5516 5518 5518 5519 5520 5521 5521 5522 5523 5524 5525 5525 5526 5527 5527 5527 5527 5528 5527 5528 5529 5529 5529 5530 5530 5533 5537 5538 5540 5541 5542 5543 5544 5545 5547
5507 5507 5507 5506 5505 5505 5505 5504 5505 5506 5507 5508 5509 5509 5509 5509 5510 5511 5512 5513 5513 5514 5514 5514 5514 5514 5515 5515 5515 5517 5518 5519 5518 5519 5521 5524 5526 5527 5529 5530 5532 5533 5535
5496 5495 5495 5494 5493 5492 5492 5492 5493 5494 5495 5496 5496 5497 5497 5496 5496 5497 5498 5499 5500 5500 5501 5500 5500 5500 5501 5502 5502 5502 5504 5505 5506 5506 5507 5509 5511 5514 5515 5517 5519 5521 5522
5484 5483 5482 5481 5480 5479 5479 5480 5481 5482 5482 5483 5483 5484 5484 5484 5484 5484 5486 5486 5487 5487 5487 5487 5487 5487 5488 5488 5488 5489 5490 5491 5492 5492 5493 5494 5496 5499 5502 5505 5507 5509 5510